This is the latest recevied weather packets stored in our database for station/object NK7E. If no packets are shown the sender has not sent any weather packets the latest 1 day(s).
| Time | Temp. | Humidity | Pressure | Rain* | Wind** | Luminosity | Snow |
|---|---|---|---|---|---|---|---|
| 1778037616 | 18.33° C | 41% | 1012.3 hPa | 0 mm | 1.34 m/s, 293° | 0 W/m² | - |
| 1778037016 | 18.89° C | 40% | 1011.9 hPa | 0 mm | 1.34 m/s, 293° | 0 W/m² | - |
| 1778036416 | 18.89° C | 39% | 1011.9 hPa | 0 mm | 1.79 m/s, 270° | 0 W/m² | - |
| 1778035816 | 18.89° C | 39% | 1011.8 hPa | 0 mm | 1.34 m/s, 270° | 0 W/m² | - |
| 1778035216 | 18.89° C | 38% | 1011.6 hPa | 0 mm | 3.13 m/s, 270° | 0 W/m² | - |
| 1778034616 | 19.44° C | 36% | 1011.5 hPa | 0 mm | 2.24 m/s, 270° | 0 W/m² | - |
| 1778034016 | 19.44° C | 35% | 1011.2 hPa | 0 mm | 3.13 m/s, 270° | 0 W/m² | - |
| 1778033416 | 19.44° C | 33% | 1011.1 hPa | 0 mm | 2.24 m/s, 270° | 3 W/m² | - |
| 1778032816 | 20° C | 32% | 1010.9 hPa | 0 mm | 3.13 m/s, 270° | 10 W/m² | - |
| 1778032216 | 20.56° C | 33% | 1010.9 hPa | 0 mm | 2.68 m/s, 270° | 19 W/m² | - |
| 1778031616 | 20.56° C | 34% | 1010.8 hPa | 0 mm | 3.13 m/s, 270° | 56 W/m² | - |
| 1778031016 | 21.11° C | 34% | 1010.7 hPa | 0 mm | 3.13 m/s, 270° | 89 W/m² | - |
| 1778030416 | 21.11° C | 34% | 1010.6 hPa | 0 mm | 3.13 m/s, 248° | 116 W/m² | - |
| 1778029816 | 21.11° C | 34% | 1010.6 hPa | 0 mm | 4.02 m/s, 270° | 138 W/m² | - |
| 1778029216 | 21.67° C | 33% | 1010.4 hPa | 0 mm | 3.13 m/s, 270° | 167 W/m² | - |
| 1778028616 | 22.22° C | 31% | 1010.3 hPa | 0 mm | 4.47 m/s, 270° | 160 W/m² | - |
| 1778028015 | 22.22° C | 29% | 1010.3 hPa | 0 mm | 3.13 m/s, 248° | 207 W/m² | - |
| 1778027416 | 22.22° C | 30% | 1010.2 hPa | 0 mm | 1.34 m/s, 225° | 262 W/m² | - |
| 1778026815 | 22.22° C | 31% | 1010.1 hPa | 0 mm | 2.68 m/s, 248° | 138 W/m² | - |
| 1778026216 | 22.78° C | 29% | 1010.2 hPa | 0 mm | 2.68 m/s, 248° | 289 W/m² | - |
| 1778025616 | 23.33° C | 27% | 1010 hPa | 0 mm | 2.68 m/s, 270° | 113 W/m² | - |
| 1778025016 | 23.33° C | 29% | 1009.9 hPa | 0 mm | 2.68 m/s, 270° | 418 W/m² | - |
| 1778024415 | 23.33° C | 28% | 1009.8 hPa | 0 mm | 2.24 m/s, 248° | 434 W/m² | - |
| 1778023815 | 23.89° C | 28% | 1009.9 hPa | 0 mm | 1.79 m/s, 248° | 253 W/m² | - |
| 1778023216 | 23.89° C | 27% | 1009.8 hPa | 0 mm | 2.68 m/s, 248° | 581 W/m² | - |
* Rain latest hour (hover to see other rain measurements)
** Current wind speed in m/s (hover to see current wind gust speed)